Погода в Верхнетуломском

Россия / Мурманская область     68°36′26″N   31°47′58″E
темп.,
°C
ветер,
м/с
пор.,
м/с
влажн.,
%
обл.,
%
осадки,
мм/ч
давл.,
гПа
погр.,
м
15 мая, сб
сб1500:00+1в41195100 0.1 1020662
03:000в51189100 0.3 1020613
06:000в4990100 0.1 1019560
09:000в3694100 0.3 1019408
12:00+1в1288100 0.4 1018292
15:00+2в1286100 0.4 1017308
18:00+2всв1291100 0.0 1017133
21:00+2св1196100 0.1 101631
16 мая, вс
вс1600:00+2всв1197100 0.1 101626
03:00+1всв1197100 0.1 101530
06:00+2всв129499 0.0 1014114
09:00+3в1290100 0.0 1013261
12:00+4всв1288100 0.1 1013317
15:00+4в1292100 0.1 1012170
18:00+4вюв1291100 0.1 1012195
21:00+4в119595 0.1 101218
17 мая, пн
пн1700:00+3в1197100 0.0 101215
03:00+3вюв1198100 0.1 101218
06:00+4юв1295100 0.0 101256
09:00+9ю247883 0.0 1012344
12:00+10ююз2477100 0.0 1012441
15:00+14ююз266797 0.0 10121094
18:00+14ююз366999 0.0 10121034
21:00+11ююв24837 0.0 101286
18 мая, вт
вт1800:00+8ююв2487100 0.0 101364
03:00+7юв228727 0.0 101334
06:00+9юв2582100 0.0 1012204
09:00+12юв3872100 0.0 1011434
12:00+15ююв4862100 0.0 1010697
15:00+14юв3866100 0.0 1008600
18:00+11юв31187100 1.3 1007655
21:00+14юв41171100 0.1 1002533
19 мая, ср
ср1900:00+13ююв41088100 1.9 1000438
03:00+11зюз1196100 2.2 100018
06:00+9зсз1399100 2.4 99992
09:00+9сз1199100 4.1 99963
12:00+8ссз1199100 4.3 99957
15:00+9с1299100 10.8 100063
18:00+11св2593100 0.9 1000533
21:00+8св3995100 1.3 1000428